EW5674 Weather Reports


time (UTC)temp
C
wind
direction
speed
KPH
gust
KPH
rain 1hr
cm
rain 24hr
cm
rain mn
cm
humidity
%
barometer
mb
20260503021559 5 207 0.0 8.0 0.00 0.05 0.00 1 1011.2
20260503020046 6 212 3.2 8.0 0.00 0.05 0.00 1 1011.1
20260503014557 6 200 3.2 9.7 0.00 0.05 0.00 1 1011.2
20260503013037 6 217 1.6 11.3 0.00 0.05 0.00 1 1011.2
20260503011535 6 212 3.2 9.7 0.00 0.05 0.00 1 1011.0
20260503010028 6 193 1.6 11.3 0.00 0.05 0.00 1 1011.0
20260503004523 6 202 3.2 11.3 0.00 0.05 0.00 1 1011.1
20260503003019 6 212 1.6 9.7 0.00 0.05 0.00 1 1011.2
20260503001515 6 201 1.6 6.4 0.00 0.05 0.00 1 1011.2
20260503000022 6 194 0.0 6.4 0.00 0.05 0.00 1 1011.4
20260502234508 6 212 1.6 8.0 0.00 0.05 0.00 1 1011.3
20260502233000 6 207 1.6 8.0 0.00 0.05 0.00 1 1011.2
20260502231606 7 212 1.6 12.9 0.00 0.05 0.00 1 1011.3
20260502230053 7 212 3.2 9.7 0.00 0.05 0.00 1 1011.3
20260502224549 7 212 1.6 8.0 0.00 0.05 0.00 1 1011.3
20260502223044 7 207 0.0 6.4 0.00 0.05 0.00 1 1011.3
20260502221540 7 192 1.6 9.7 0.00 0.05 0.00 1 1011.3
20260502220040 7 212 1.6 4.8 0.00 0.05 0.00 1 1011.2
20260502214532 7 212 0.0 4.8 0.00 0.05 0.05 1 1011.2
20260502213038 7 212 0.0 8.0 0.00 0.05 0.05 1 1011.1
20260502211526 7 212 1.6 8.0 0.00 0.05 0.05 1 1011.2
20260502210018 7 179 0.0 6.4 0.00 0.05 0.05 1 1011.3
20260502204514 8 198 0.0 6.4 0.00 0.05 0.05 1 1011.3
20260502203009 8 196 0.0 6.4 0.00 0.05 0.05 1 1011.2
20260502201507 9 173 0.0 6.4 0.00 0.05 0.05 1 1011.1
20260502200001 9 221 0.0 6.4 0.00 0.05 0.05 1 1011.0
20260502194600 9 222 1.6 8.0 0.00 0.05 0.05 1 1010.8
20260502193052 10 221 1.6 12.9 0.00 0.05 0.05 1 1010.7
20260502191551 10 212 3.2 11.3 0.00 0.05 0.05 2 1010.5
20260502190044 10 207 1.6 11.3 0.00 0.05 0.05 3 1010.6
20260502184539 10 194 3.2 12.9 0.00 0.05 0.05 5 1010.5
20260502183034 11 196 1.6 12.9 0.00 0.05 0.05 6 1010.5
20260502181538 11 212 3.2 9.7 0.00 0.05 0.05 13 1010.4
20260502163104 12 212 4.8 9.7 0.00 0.05 0.05 27 1010.3
20260502161558 12 237 3.2 8.0 0.00 0.05 0.05 30 1010.4
20260502151540 12 258 1.6 8.0 0.00 0.05 0.05 31 1010.7
20260502130104 12 196 0.0 6.4 0.00 0.05 0.05 15 1011.8
20260502123049 11 175 1.6 6.4 0.00 0.05 0.05 3 1012.0
20260502121546 11 201 0.0 3.2 0.00 0.05 0.05 1 1012.0
20260502114539 10 217 0.0 3.2 0.00 0.05 0.05 1 1012.1
20260502113033 10 217 0.0 4.8 0.00 0.05 0.05 1 1012.1
20260502111528 10 254 0.0 1.6 0.03 0.05 0.05 1 1011.9
20260502110024 10 254 0.0 3.2 0.03 0.05 0.05 1 1011.8
20260502104520 10 254 1.6 8.0 0.03 0.05 0.05 1 1011.7
20260502103020 10 247 0.0 4.8 0.05 0.05 0.05 1 1012.0
20260502101511 10 247 0.0 4.8 0.03 0.03 0.03 1 1012.5
20260502080104 11 42 0.0 0.0 0.00 0.00 0.00 32 1012.9
20260502070048 11 41 0.0 1.6 0.00 0.00 0.00 36 1012.9
20260502064557 10 356 0.0 3.2 0.00 0.00 0.00 37 1012.9
20260502063044 10 356 0.0 1.6 0.00 0.00 0.00 37 1012.9
20260502061544 10 356 0.0 1.6 0.00 0.00 0.00 36 1013.0
20260502060046 8 356 0.0 4.8 0.00 0.00 0.00 35 1012.9
20260502054553 8 356 0.0 1.6 0.00 0.00 0.00 33 1012.9
20260502053042 7 356 0.0 0.0 0.00 0.00 0.00 33 1013.1
20260502051541 6 356 0.0 0.0 0.00 0.00 0.00 30 1013.2
20260502050045 6 356 0.0 0.0 0.00 0.00 0.00 29 1013.3
20260502044540 6 356 0.0 0.0 0.00 0.00 0.00 29 1013.5
20260502043035 5 356 0.0 0.0 0.00 0.00 0.00 32 1013.6
20260502041535 5 356 0.0 1.6 0.00 0.00 0.00 32 1014.0
20260502040041 5 356 0.0 1.6 0.00 0.00 0.00 33 1014.0
20260502034533 5 356 0.0 3.2 0.00 0.00 0.00 34 1014.0
20260502033029 5 356 0.0 1.6 0.00 0.00 0.00 34 1014.2
20260502031528 5 356 0.0 1.6 0.00 0.00 0.00 35 1014.3
20260502030028 5 356 0.0 1.6 0.00 0.00 0.00 37 1014.5
20260502024525 6 356 0.0 1.6 0.00 0.00 0.00 38 1014.7
20260502023020 6 356 0.0 1.6 0.00 0.00 0.00 40 1014.8